Weather History for KGUP - January, 2013

Change the Weather History Date:

Thursday, January 3, 2013

  Actual Average Record
Temperature  
Mean Temperature 18 °F -  
Max Temperature 30 °F 43 °F 60 °F (1981)
Min Temperature 5 °F 12 °F -11 °F (1974)
Degree Days  
Heating Degree Days 48    
Moisture  
Dew Point 5 °F    
Average Humidity 63    
Maximum Humidity 76    
Minimum Humidity 47    
Precipitation  
Precipitation 0.00 in - - ()
Sea Level Pressure  
Sea Level Pressure 30.50 in    
Wind  
Wind Speed 5 mph (NE)    
Max Wind Speed 18 mph    
Max Gust Speed -    
Visibility 10 miles    
Events      
Averages and records for this station are not official NWS values.
T = Trace of Precipitation, MM = Missing Value Source: NWS Daily Summary

Daily Weather History Graph

Daily Weather History Graph

Search for Another Location

Airport or City:

Trip Planner

Search our weather history database for the weather conditions in past years. The results will help you decide how hot, cold, wet, or windy it might be!

Date:

Astronomy

Jan. 03, 2013 Rise Set
Actual Time 7:24 AM MST 5:15 PM MST
Civil Twilight 6:56 AM MST 5:43 PM MST
Nautical Twilight 6:24 AM MST 6:14 PM MST
Astronomical Twilight 5:54 AM MST 6:45 PM MST
Moon 11:38 PM MST (1/3) 10:51 AM MST (1/3)
Length of Visible Light 10h 46m
Length of Day
9h 50m
Waning Gibbous, 65% of the Moon is Illuminated
Jan 3
Waning Gibbous
Jan 4
Last Quarter
Jan 11
New
Jan 18
First Quarter
Jan 26
Full

Hourly Weather History & Observations

Time (MST) Temp. Windchill Dew Point Humidity Pressure Visibility Wind Dir Wind Speed Gust Speed Precip Events Conditions
12:53 AM 8.1 °F - -0.0 °F 70% 30.45 in 10.0 mi Calm Calm - N/A   Clear
1:53 AM 5.0 °F - -2.9 °F 70% 30.43 in 10.0 mi Calm Calm - N/A   Clear
2:53 AM 8.1 °F -5.3 °F -0.9 °F 67% 30.41 in 10.0 mi NE 9.2 mph - N/A   Clear
3:53 AM 8.1 °F -6.2 °F -0.9 °F 67% 30.42 in 10.0 mi ENE 10.4 mph - N/A   Clear
4:53 AM 5.0 °F - -2.0 °F 73% 30.48 in 10.0 mi Calm Calm - N/A   Clear
5:14 AM 6.8 °F -3.5 °F -2.2 °F 67% 30.21 in 9.0 mi NNE 5.8 mph - N/A   Mostly Cloudy
5:22 AM 5.0 °F - -2.2 °F 72% 30.21 in 10.0 mi Calm Calm - N/A   Scattered Clouds
5:53 AM 6.1 °F -0.9 °F -2.0 °F 69% 30.52 in 10.0 mi East 3.5 mph - N/A   Clear
6:53 AM 7.0 °F - -0.9 °F 70% 30.57 in 10.0 mi Calm Calm - N/A   Clear
7:53 AM 5.0 °F - -2.0 °F 73% 30.65 in 10.0 mi Calm Calm - N/A   Clear
8:53 AM 16.0 °F 5.3 °F 7.0 °F 68% 30.57 in 10.0 mi East 8.1 mph - N/A   Clear
9:53 AM 19.9 °F 13.4 °F 10.9 °F 68% 30.58 in 10.0 mi ENE 4.6 mph - N/A   Clear
10:53 AM 27.0 °F 18.0 °F 12.0 °F 53% 30.53 in 10.0 mi ENE 9.2 mph - N/A   Clear
11:53 AM 28.0 °F 18.1 °F 12.9 °F 53% 30.52 in 10.0 mi North 11.5 mph - 0.00 in   Clear
12:53 PM 28.9 °F 18.6 °F 12.0 °F 49% 30.47 in 10.0 mi North 12.7 mph - 0.00 in   Clear
1:53 PM 30.0 °F 20.5 °F 12.0 °F 47% 30.48 in 10.0 mi NNE 11.5 mph - 0.00 in   Clear
2:53 PM 30.0 °F 17.9 °F 12.0 °F 47% 30.47 in 10.0 mi North 18.4 mph - N/A   Clear
3:53 PM 28.9 °F 17.7 °F 10.9 °F 47% 30.47 in 10.0 mi North 15.0 mph - N/A   Clear
4:53 PM 27.0 °F 17.3 °F 10.0 °F 49% 30.52 in 10.0 mi North 10.4 mph - N/A   Clear
5:53 PM 21.9 °F 13.4 °F 10.0 °F 60% 30.56 in 10.0 mi NNE 6.9 mph - N/A   Clear
6:53 PM 19.9 °F 9.3 °F 9.0 °F 62% 30.57 in 10.0 mi ENE 9.2 mph - N/A   Clear
7:53 PM 15.1 °F - 6.1 °F 68% 30.64 in 10.0 mi Calm Calm - N/A   Clear
8:53 PM 16.0 °F 6.3 °F 7.0 °F 68% 30.56 in 10.0 mi East 6.9 mph - N/A   Clear
9:53 PM 14.0 °F - 5.0 °F 67% 30.56 in 10.0 mi Calm Calm - N/A   Clear
10:53 PM 8.1 °F - 1.9 °F 76% 30.55 in 10.0 mi Calm Calm - N/A   Clear
11:53 PM 10.0 °F 3.6 °F 1.9 °F 70% 30.53 in 10.0 mi NE 3.5 mph - N/A   Clear